SCP
0 0 0 0 0 0 0 0 0 0 0 0 0 0 0 0 0 0 0 0 0 0 0 0 0 0 0 0 0 0 0 0 0 0 0 0 0 0 0 0 0 0 0 0
-0 -0 0 0 0 0 0 0 0 0 0 0 0 0 0 0 0 0 0 0 0 0 0 0 0 0 0 0 0 0 0 0 0 0 0 0 0 0 0 0 0 0 0 0
-0 0 0 0 0 0 0 0 0 0 0 0 0 0 0 0 0 0 0 0 0 0 0 0 0 0 0 0 0 0 0 0 0 0 0 0 0 0 0 0 0 0 0 0
-0 0 0 0 0 0 0 0 0 0 0 0 0 0 0 0 0 0 0 0 0 0 0 0 0 0 0 0 0 0 0 0 0 0 0 0 0 0 0 0 0 0 0 0
-0 -0 0 0 0 0 0 0 0 0 0 0 0 0 -0 -0 0 0 0 0 0 0 0 0 0 0 0 0 0 0 0 0 0 0 0 0 0 0 0 0 0 0 0 0
-0 -0 -0 -0 0 -0 -0 -0 -0 -0 0 0 0 0 -0 0 0 0 0 0 0 0 0 0 0 0 0 0 0 0 0 0 0 0 0 0 0 0 0 0 0 0 0 0
0 0 0 -0 0 -0 -0 -0 -0 -0 -0 0 -0 -0 0 0 0 -0 0 0 0 0 0 0 0 0 0 0 0 0 0 0 0 0 0 0 0 0 0 0 0 0 0 0
0 0 0 0 -0 0 -0 0 0 0 0 0 0 0 0 -0 0 0 0 0 0 0 0 0 0 0 0 0 0 0 0 0 0 0 0 0 0 0 0 0 0 0 0 0
0 0 0 0 0 0 0 0 0 0 0 0 -0 -0 -0 0 0 0 0 0 0 0 0 0 0 0 0 0 0 0 0 0 0 0 0 0 0 0 0 0 0 0 0 0
0 -0 0 -0 0 -0 -0 0 0 0 0 -0 -0 0 0 0 0 0 0 0 0 0 0 0 0 0 0 0 0 0 0 0 0 0 0 0 0 0 0 0 0 0 0 0
0 0 -0 0 0 -0 -0 0 0 0 0 0 -0 0 0 0 0 0 0 0 0 0 0 0 0 0 0 0 0 0 0 0 0 0 0 0 0 0 0 0 0 0 0 0
0 0 0 -0 0 -0 0 -0 0 -0 0 0 0 0 0 -0 -0 -0 -0 0 0 0 0 0 0 0 0 0 0 0 0 0 0 0 0 0 0 0 0 0 0 0 0 0
0 0 0 0 -0 -0 0 -0 0 -0 0 0 0 -0 0 0 -0 0 0 0 0 0 0 0 0 0 0 0 0 0 0 0 0 0 0 0 0 0 0 0 0 0 0 0
0 0 -0 0 -0 -0 -0 -0 -0 -0 -0 -0 0 0 0 -0 0 0 0 0 0 0 0 0 0 0 0 0 0 0 0 0 0 0 0 0 0 0 0 0 0 0 0 0
0 0 0 -0 -0 -0 -0 -0 0 -0 -0 -0 0 0 0 -0 -0 0 0 0 0 0 0 0 0 0 0 0 0 0 0 0 0 0 0 0 0 0 0 0 0 0 0 0
-0 0 -0 -0 0 -0 -0 0 -0 -0 -0 -0 -0 0 -0 0 -0 -0 0 0 0 0 0 0 0 0 0 0 0 0 0 0 0 0 0 0 0 0 0 0 0 0 0 0
-0 -0 -0 -0 -0 -0 -0 -0 -0 -0 -0 -0 -0 -0 -0 0 0 0 0 0 0 0 0 0 0 0 0 0 0 0 0 0 0 0 0 0 0 0 0 0 0 0 0 0
-0 -0 -0 0 -0 -0 0 0 -0 -0 -0 0 -0 -0 -0 0 0 -0 0 0 0 0 0 0 0 0 0 0 0 0 0 0 0 0 0 0 0 0 0 0 0 0 0 0
0 -0 -0 -0 -0 -0 -0 -0 -0 -0 0 -0 -0 -0 -0 0 0 0 0 0 0 -0 0 0 0 0 0 0 0 0 0 0 0 -0 -0 0 0 0 0 0 0 0 0 0
-0 -0 -0 -0 0 -0 -0 0 0 -0 -0 0 -0 -0 -0 -0 0 0 0 0 0 0 -0 -0 -0 0 0 0 0 0 -0 -0 -0 -0 0 0 0 0 0 0 0 0 0 0
-0 -0 -0 -0 0 -0 -0 -0 -0 -0 0 -0 -0 0 0 0 0 0 0 0 0 0 0 0 0 0 0 0 0 -0 -0 -0 0 0 0 0 0 0 0 0 0 0 0 0
-0 -0 -0 0 0 0 -0 -0 0 -0 -0 -0 0 0 0 0 0 0 0 0 0 0 0 0 0 0 0 -0 -0 -0 -0 0 0 0 0 0 0 0 0 0 0 0 0 0
-0 -0 0 -0 0 0 -0 -0 0 0 -0 0 0 0 0 0 0 0 0 0 0 0 0 -0 -0 -0 -0 -0 -0 -0 0 0 0 0 0 0 0 0 0 0 0 0 0 0
-0 -0 0 0 0 0 0 0 0 0 0 -0 -0 0 0 0 -0 -0 -0 -0 -0 -0 0 -0 -0 -0 -0 -0 -0 -0 0 0 0 0 0 0 0 0 0 0 0 0 0 0
0 0 0 0 -0 0 0 0 0 -0 -0 -0 -0 -0 -0 -0 -0 -0 -0 -0 -0 0 -0 -0 -0 -0 -0 -0 -0 0 0 0 0 0 0 0 0 0 0 0 0 0 0 0
-0 -0 -0 -0 0 0 0 0 0 0 -0 -0 -0 0 0 -0 0 0 -0 -0 -0 -0 -0 -0 -0 -0 0 0 0 0 0 0 0 0 0 0 0 0 0 0 0 0 0 0
Wind_Speed_500mb
12 13 17 25 25 29 32 37 43 39 38 41 43 45 39 48 47 41 62 68 70 56 51 56 63 63 66 63 61 68 73 69 62 61 62 62 61 50 44 42 41 35 31 29
17 23 12 20 27 28 31 36 39 39 35 41 47 57 50 47 58 51 47 65 66 60 53 55 64 78 77 73 72 68 66 75 71 67 66 60 62 55 49 46 45 45 43 40
20 30 36 21 28 29 30 32 37 41 36 43 44 64 57 54 70 69 66 63 63 58 58 57 65 76 77 75 73 68 70 76 75 69 63 67 63 58 55 50 51 51 48 46
17 11 21 28 33 28 31 30 31 34 31 25 23 24 33 32 51 58 66 68 72 66 57 65 65 72 76 77 74 72 75 80 77 75 75 66 66 61 59 57 59 57 54 48
13 26 29 34 33 25 27 23 27 32 33 35 38 25 14 37 52 48 52 70 76 78 73 60 72 73 78 79 80 79 80 78 75 78 69 60 65 68 63 65 64 58 53 46
33 45 25 18 25 25 26 27 32 33 25 27 32 33 34 33 42 34 33 69 63 80 84 68 77 72 76 80 80 79 78 78 78 70 69 69 70 70 68 67 63 60 54 42
34 17 5 12 19 17 17 20 9 8 11 20 23 29 49 26 39 45 48 59 69 73 80 83 80 77 78 82 85 83 85 85 82 74 77 79 77 78 75 70 69 64 51 42
19 18 2 4 20 20 34 10 9 15 17 25 35 15 26 21 18 27 32 53 45 69 72 79 87 86 95 99 97 99 94 83 80 79 77 77 81 83 78 70 62 49 40 41
13 15 43 43 25 3 1 11 3 14 36 24 16 31 44 38 14 18 29 39 49 50 67 71 89 95 105 106 105 97 90 79 76 75 76 80 81 76 69 60 52 49 46 40
12 25 23 18 22 24 14 10 10 7 11 16 17 27 25 21 31 36 34 37 43 57 62 79 84 95 102 99 95 91 80 78 76 75 77 77 70 56 54 55 56 53 47 40
28 13 25 34 5 20 8 4 8 9 11 11 15 12 12 30 34 40 40 54 48 55 50 65 69 78 89 93 93 84 83 75 70 67 69 63 56 65 64 63 56 49 42 36
18 10 19 42 44 18 8 13 16 9 12 14 17 20 19 27 33 28 40 32 31 27 58 68 72 78 79 88 91 85 80 72 65 56 50 58 62 69 65 59 53 47 41 36
13 7 15 13 5 7 19 34 24 23 11 27 12 8 17 29 30 34 28 15 2 20 50 64 70 73 77 79 79 79 71 64 57 54 62 75 71 70 67 53 52 41 36 37
12 9 17 21 36 33 31 39 36 18 9 17 13 27 29 31 29 25 24 8 13 25 34 50 65 69 70 72 71 70 63 65 69 76 77 75 73 61 55 51 44 40 37 32
11 18 26 32 39 40 40 32 25 20 19 10 24 26 22 20 25 19 17 10 13 30 36 40 57 68 67 70 67 71 80 85 90 84 82 75 63 55 51 45 43 40 35 30
11 11 24 34 28 19 31 17 23 15 25 21 33 20 28 37 37 29 25 18 19 25 38 43 54 62 71 76 84 89 86 81 79 80 74 61 58 54 46 45 44 38 33 26
10 9 14 13 24 33 4 22 15 7 19 22 17 24 39 26 24 39 33 25 24 29 40 51 57 65 72 78 82 82 78 76 73 60 58 61 53 52 49 44 38 33 28 22
12 12 7 13 26 3 5 12 5 17 20 36 33 37 37 35 34 38 52 29 30 31 43 52 64 73 75 74 75 75 75 75 70 66 58 55 53 50 45 39 34 30 24 18
32 7 8 8 14 12 5 23 13 9 16 29 34 39 40 51 36 35 65 40 30 30 39 55 59 61 63 64 67 66 71 69 62 51 53 52 47 43 38 34 30 25 20 13
13 15 9 7 10 8 12 26 20 10 10 28 32 29 38 44 16 17 54 38 34 31 39 48 50 52 52 56 58 62 64 61 56 54 51 47 42 38 36 30 26 21 15 8
5 7 14 13 9 8 12 41 8 6 8 41 32 35 37 16 14 28 33 36 33 31 33 36 37 42 45 50 51 54 55 53 49 46 45 44 40 35 31 28 21 15 8 3
5 4 5 4 4 6 26 13 10 8 29 27 30 36 38 29 26 30 30 30 26 28 28 30 37 36 39 41 42 49 49 45 43 44 42 40 38 35 31 22 12 5 6 7
5 4 2 7 4 5 10 5 15 17 22 21 30 37 32 24 23 22 23 22 22 25 26 26 32 37 37 35 34 41 48 43 41 37 39 37 36 33 24 12 1 5 3 8
12 13 8 5 3 4 7 20 14 14 16 20 20 20 24 20 18 20 23 26 28 29 29 26 27 30 34 31 31 31 40 42 38 37 33 31 28 25 21 14 7 3 6 9
8 13 8 10 20 18 5 4 8 12 14 15 8 13 22 21 20 18 23 26 29 31 31 29 26 26 27 27 27 26 28 31 34 39 37 35 34 27 17 9 3 7 9 11
20 13 13 10 6 2 5 3 4 9 17 22 19 13 17 17 17 16 21 26 28 28 30 29 27 27 30 29 27 27 23 19 19 21 21 21 20 15 8 8 11 11 11 14
Wind_Direction_500mb
328 294 292 306 298 292 289 285 281 278 289 304 288 284 280 283 285 285 255 238 243 225 225 215 205 205 200 200 199 206 204 195 192 197 198 203 204 201 205 208 213 218 220 224
294 281 346 323 298 289 288 281 278 278 261 267 282 273 260 257 263 259 264 256 245 237 219 210 208 210 207 200 205 204 203 200 199 202 208 210 202 198 207 213 215 218 222 225
297 289 312 301 291 292 291 279 278 277 279 274 278 276 269 254 260 257 250 254 259 266 217 210 207 206 206 204 202 199 198 199 200 208 206 204 205 203 205 213 219 218 222 226
289 303 299 303 290 294 291 297 300 278 276 270 272 282 276 262 245 239 240 243 247 251 253 207 210 206 206 202 200 194 197 200 203 206 210 212 206 205 211 216 217 218 218 217
293 313 314 300 295 303 283 296 289 281 276 279 256 268 289 238 245 247 231 232 239 238 242 211 210 207 204 201 200 199 198 201 202 210 209 210 210 212 216 218 217 214 214 209
271 281 270 267 307 289 280 284 283 272 261 255 256 240 277 250 258 261 254 241 231 229 226 216 214 206 203 200 199 198 195 200 210 208 209 213 217 218 220 219 217 209 205 190
321 293 207 257 293 308 244 283 287 245 220 255 252 229 243 274 265 261 253 249 241 229 223 213 201 201 197 195 196 196 198 199 206 209 211 216 220 224 222 221 212 200 184 180
333 318 274 69 292 299 298 248 264 294 291 311 306 249 245 246 276 299 284 273 273 230 222 207 197 194 196 197 195 200 201 203 211 213 215 220 225 224 220 212 197 176 182 173
306 274 318 300 311 242 321 242 233 276 257 263 240 266 282 267 260 317 305 295 274 261 223 202 197 197 198 199 202 201 202 204 210 214 217 219 220 219 207 184 172 176 171 155
300 294 285 286 295 267 223 350 275 227 286 304 278 250 258 358 320 307 303 296 282 265 233 201 196 200 203 200 199 200 202 206 208 213 214 214 211 198 174 168 166 161 144 133
303 247 293 311 245 303 286 261 239 259 267 289 315 321 355 330 323 302 300 298 288 271 215 182 188 196 201 195 191 194 198 205 206 207 208 206 187 170 162 155 151 139 130 134
318 296 285 283 282 258 247 279 286 282 285 280 273 277 359 334 323 303 303 306 289 188 171 178 186 194 193 188 187 190 191 196 203 193 179 165 155 153 149 142 139 134 145 151
337 270 305 305 162 194 309 310 298 287 273 266 290 325 0 332 320 320 315 305 298 142 158 174 178 183 182 179 177 178 186 185 175 162 160 152 153 146 143 144 136 144 162 157
299 263 266 277 287 304 301 305 312 293 266 319 287 312 322 328 318 328 337 352 103 112 130 152 168 176 175 171 171 167 159 162 153 153 149 148 144 138 139 138 145 157 155 154
314 271 278 279 281 286 279 291 317 331 346 291 321 312 318 342 334 329 341 14 95 107 117 127 139 156 157 155 151 149 150 149 143 146 147 141 144 144 134 148 155 154 155 156
300 278 314 294 278 263 295 303 335 3 355 335 319 307 333 352 355 4 18 39 68 97 122 134 137 142 145 141 146 140 140 140 141 142 139 144 145 139 154 157 157 155 153 151
274 304 324 273 311 312 213 359 324 302 22 349 344 307 314 342 3 4 17 48 72 92 110 126 131 134 135 139 137 133 137 138 139 146 148 143 144 155 157 157 154 151 149 151
268 282 270 290 312 43 34 36 261 317 22 6 345 336 331 328 333 21 25 42 70 95 115 127 132 134 136 136 135 137 143 146 147 145 146 150 152 157 155 154 151 151 148 153
221 248 271 295 306 290 87 8 342 340 20 15 350 341 341 340 338 17 15 43 65 85 114 122 125 129 137 145 144 149 147 147 147 148 149 150 155 155 152 152 150 147 151 155
213 236 267 311 295 337 29 346 333 213 31 11 349 347 349 344 15 4 2 39 68 87 124 138 140 139 142 141 143 144 145 147 148 149 151 152 152 154 150 146 145 151 154 176
231 208 236 255 273 282 358 318 338 11 314 324 345 353 354 3 334 332 21 43 62 83 112 132 132 134 136 141 145 143 145 147 147 150 153 153 152 151 146 145 146 156 161 199
238 231 239 257 272 307 356 9 45 279 292 317 348 360 350 354 4 22 38 55 67 86 107 130 140 138 138 144 146 143 144 150 154 154 155 154 154 151 142 138 138 143 141 256
249 246 300 239 313 126 1 21 303 289 286 317 334 345 356 2 21 49 61 74 84 95 105 121 140 147 145 146 152 150 154 157 152 159 157 154 152 151 138 144 274 181 243 270
213 207 231 286 91 184 247 310 308 318 303 304 325 343 355 14 39 66 85 91 99 102 104 109 126 142 146 149 149 161 161 165 170 160 152 155 158 167 190 217 215 178 245 272
256 168 212 252 278 281 247 307 341 3 359 350 336 2 11 20 42 62 80 86 93 98 104 109 117 133 141 141 147 153 163 169 167 173 177 183 186 194 208 193 195 229 255 269
198 193 197 229 155 208 162 195 12 31 31 24 20 18 24 36 56 73 91 95 97 102 104 104 112 125 131 134 140 145 154 152 158 159 162 172 171 182 169 199 226 239 262 291
Wind_Speed_850mb
12 13 17 25 25 29 32 37 43 39 38 41 43 45 39 48 47 41 62 68 70 56 51 56 63 63 66 63 61 68 73 69 62 61 62 62 61 50 44 42 41 35 31 29
17 23 12 20 27 28 31 36 39 39 35 41 47 57 50 47 58 51 47 65 66 60 53 55 64 78 77 73 72 68 66 75 71 67 66 60 62 55 49 46 45 45 43 40
20 30 36 21 28 29 30 32 37 41 36 43 44 64 57 54 70 69 66 63 63 58 58 57 65 76 77 75 73 68 70 76 75 69 63 67 63 58 55 50 51 51 48 46
17 11 21 28 33 28 31 30 31 34 31 25 23 24 33 32 51 58 66 68 72 66 57 65 65 72 76 77 74 72 75 80 77 75 75 66 66 61 59 57 59 57 54 48
13 26 29 34 33 25 27 23 27 32 33 35 38 25 14 37 52 48 52 70 76 78 73 60 72 73 78 79 80 79 80 78 75 78 69 60 65 68 63 65 64 58 53 46
33 45 25 18 25 25 26 27 32 33 25 27 32 33 34 33 42 34 33 69 63 80 84 68 77 72 76 80 80 79 78 78 78 70 69 69 70 70 68 67 63 60 54 42
34 17 5 12 19 17 17 20 9 8 11 20 23 29 49 26 39 45 48 59 69 73 80 83 80 77 78 82 85 83 85 85 82 74 77 79 77 78 75 70 69 64 51 42
19 18 2 4 20 20 34 10 9 15 17 25 35 15 26 21 18 27 32 53 45 69 72 79 87 86 95 99 97 99 94 83 80 79 77 77 81 83 78 70 62 49 40 41
13 15 43 43 25 3 1 11 3 14 36 24 16 31 44 38 14 18 29 39 49 50 67 71 89 95 105 106 105 97 90 79 76 75 76 80 81 76 69 60 52 49 46 40
12 25 23 18 22 24 14 10 10 7 11 16 17 27 25 21 31 36 34 37 43 57 62 79 84 95 102 99 95 91 80 78 76 75 77 77 70 56 54 55 56 53 47 40
28 13 25 34 5 20 8 4 8 9 11 11 15 12 12 30 34 40 40 54 48 55 50 65 69 78 89 93 93 84 83 75 70 67 69 63 56 65 64 63 56 49 42 36
18 10 19 42 44 18 8 13 16 9 12 14 17 20 19 27 33 28 40 32 31 27 58 68 72 78 79 88 91 85 80 72 65 56 50 58 62 69 65 59 53 47 41 36
13 7 15 13 5 7 19 34 24 23 11 27 12 8 17 29 30 34 28 15 2 20 50 64 70 73 77 79 79 79 71 64 57 54 62 75 71 70 67 53 52 41 36 37
12 9 17 21 36 33 31 39 36 18 9 17 13 27 29 31 29 25 24 8 13 25 34 50 65 69 70 72 71 70 63 65 69 76 77 75 73 61 55 51 44 40 37 32
11 18 26 32 39 40 40 32 25 20 19 10 24 26 22 20 25 19 17 10 13 30 36 40 57 68 67 70 67 71 80 85 90 84 82 75 63 55 51 45 43 40 35 30
11 11 24 34 28 19 31 17 23 15 25 21 33 20 28 37 37 29 25 18 19 25 38 43 54 62 71 76 84 89 86 81 79 80 74 61 58 54 46 45 44 38 33 26
10 9 14 13 24 33 4 22 15 7 19 22 17 24 39 26 24 39 33 25 24 29 40 51 57 65 72 78 82 82 78 76 73 60 58 61 53 52 49 44 38 33 28 22
12 12 7 13 26 3 5 12 5 17 20 36 33 37 37 35 34 38 52 29 30 31 43 52 64 73 75 74 75 75 75 75 70 66 58 55 53 50 45 39 34 30 24 18
32 7 8 8 14 12 5 23 13 9 16 29 34 39 40 51 36 35 65 40 30 30 39 55 59 61 63 64 67 66 71 69 62 51 53 52 47 43 38 34 30 25 20 13
13 15 9 7 10 8 12 26 20 10 10 28 32 29 38 44 16 17 54 38 34 31 39 48 50 52 52 56 58 62 64 61 56 54 51 47 42 38 36 30 26 21 15 8
5 7 14 13 9 8 12 41 8 6 8 41 32 35 37 16 14 28 33 36 33 31 33 36 37 42 45 50 51 54 55 53 49 46 45 44 40 35 31 28 21 15 8 3
5 4 5 4 4 6 26 13 10 8 29 27 30 36 38 29 26 30 30 30 26 28 28 30 37 36 39 41 42 49 49 45 43 44 42 40 38 35 31 22 12 5 6 7
5 4 2 7 4 5 10 5 15 17 22 21 30 37 32 24 23 22 23 22 22 25 26 26 32 37 37 35 34 41 48 43 41 37 39 37 36 33 24 12 1 5 3 8
12 13 8 5 3 4 7 20 14 14 16 20 20 20 24 20 18 20 23 26 28 29 29 26 27 30 34 31 31 31 40 42 38 37 33 31 28 25 21 14 7 3 6 9
8 13 8 10 20 18 5 4 8 12 14 15 8 13 22 21 20 18 23 26 29 31 31 29 26 26 27 27 27 26 28 31 34 39 37 35 34 27 17 9 3 7 9 11
20 13 13 10 6 2 5 3 4 9 17 22 19 13 17 17 17 16 21 26 28 28 30 29 27 27 30 29 27 27 23 19 19 21 21 21 20 15 8 8 11 11 11 14
Wind_Direction_850mb
328 294 292 306 298 292 289 285 281 278 289 304 288 284 280 283 285 285 255 238 243 225 225 215 205 205 200 200 199 206 204 195 192 197 198 203 204 201 205 208 213 218 220 224
294 281 346 323 298 289 288 281 278 278 261 267 282 273 260 257 263 259 264 256 245 237 219 210 208 210 207 200 205 204 203 200 199 202 208 210 202 198 207 213 215 218 222 225
297 289 312 301 291 292 291 279 278 277 279 274 278 276 269 254 260 257 250 254 259 266 217 210 207 206 206 204 202 199 198 199 200 208 206 204 205 203 205 213 219 218 222 226
289 303 299 303 290 294 291 297 300 278 276 270 272 282 276 262 245 239 240 243 247 251 253 207 210 206 206 202 200 194 197 200 203 206 210 212 206 205 211 216 217 218 218 217
293 313 314 300 295 303 283 296 289 281 276 279 256 268 289 238 245 247 231 232 239 238 242 211 210 207 204 201 200 199 198 201 202 210 209 210 210 212 216 218 217 214 214 209
271 281 270 267 307 289 280 284 283 272 261 255 256 240 277 250 258 261 254 241 231 229 226 216 214 206 203 200 199 198 195 200 210 208 209 213 217 218 220 219 217 209 205 190
321 293 207 257 293 308 244 283 287 245 220 255 252 229 243 274 265 261 253 249 241 229 223 213 201 201 197 195 196 196 198 199 206 209 211 216 220 224 222 221 212 200 184 180
333 318 274 69 292 299 298 248 264 294 291 311 306 249 245 246 276 299 284 273 273 230 222 207 197 194 196 197 195 200 201 203 211 213 215 220 225 224 220 212 197 176 182 173
306 274 318 300 311 242 321 242 233 276 257 263 240 266 282 267 260 317 305 295 274 261 223 202 197 197 198 199 202 201 202 204 210 214 217 219 220 219 207 184 172 176 171 155
300 294 285 286 295 267 223 350 275 227 286 304 278 250 258 358 320 307 303 296 282 265 233 201 196 200 203 200 199 200 202 206 208 213 214 214 211 198 174 168 166 161 144 133
303 247 293 311 245 303 286 261 239 259 267 289 315 321 355 330 323 302 300 298 288 271 215 182 188 196 201 195 191 194 198 205 206 207 208 206 187 170 162 155 151 139 130 134
318 296 285 283 282 258 247 279 286 282 285 280 273 277 359 334 323 303 303 306 289 188 171 178 186 194 193 188 187 190 191 196 203 193 179 165 155 153 149 142 139 134 145 151
337 270 305 305 162 194 309 310 298 287 273 266 290 325 0 332 320 320 315 305 298 142 158 174 178 183 182 179 177 178 186 185 175 162 160 152 153 146 143 144 136 144 162 157
299 263 266 277 287 304 301 305 312 293 266 319 287 312 322 328 318 328 337 352 103 112 130 152 168 176 175 171 171 167 159 162 153 153 149 148 144 138 139 138 145 157 155 154
314 271 278 279 281 286 279 291 317 331 346 291 321 312 318 342 334 329 341 14 95 107 117 127 139 156 157 155 151 149 150 149 143 146 147 141 144 144 134 148 155 154 155 156
300 278 314 294 278 263 295 303 335 3 355 335 319 307 333 352 355 4 18 39 68 97 122 134 137 142 145 141 146 140 140 140 141 142 139 144 145 139 154 157 157 155 153 151
274 304 324 273 311 312 213 359 324 302 22 349 344 307 314 342 3 4 17 48 72 92 110 126 131 134 135 139 137 133 137 138 139 146 148 143 144 155 157 157 154 151 149 151
268 282 270 290 312 43 34 36 261 317 22 6 345 336 331 328 333 21 25 42 70 95 115 127 132 134 136 136 135 137 143 146 147 145 146 150 152 157 155 154 151 151 148 153
221 248 271 295 306 290 87 8 342 340 20 15 350 341 341 340 338 17 15 43 65 85 114 122 125 129 137 145 144 149 147 147 147 148 149 150 155 155 152 152 150 147 151 155
213 236 267 311 295 337 29 346 333 213 31 11 349 347 349 344 15 4 2 39 68 87 124 138 140 139 142 141 143 144 145 147 148 149 151 152 152 154 150 146 145 151 154 176
231 208 236 255 273 282 358 318 338 11 314 324 345 353 354 3 334 332 21 43 62 83 112 132 132 134 136 141 145 143 145 147 147 150 153 153 152 151 146 145 146 156 161 199
238 231 239 257 272 307 356 9 45 279 292 317 348 360 350 354 4 22 38 55 67 86 107 130 140 138 138 144 146 143 144 150 154 154 155 154 154 151 142 138 138 143 141 256
249 246 300 239 313 126 1 21 303 289 286 317 334 345 356 2 21 49 61 74 84 95 105 121 140 147 145 146 152 150 154 157 152 159 157 154 152 151 138 144 274 181 243 270
213 207 231 286 91 184 247 310 308 318 303 304 325 343 355 14 39 66 85 91 99 102 104 109 126 142 146 149 149 161 161 165 170 160 152 155 158 167 190 217 215 178 245 272
256 168 212 252 278 281 247 307 341 3 359 350 336 2 11 20 42 62 80 86 93 98 104 109 117 133 141 141 147 153 163 169 167 173 177 183 186 194 208 193 195 229 255 269
198 193 197 229 155 208 162 195 12 31 31 24 20 18 24 36 56 73 91 95 97 102 104 104 112 125 131 134 140 145 154 152 158 159 162 172 171 182 169 199 226 239 262 291